Regional Weather Roundup
Issued by NWS Northern Indiana

Home | Current Version | Previous Version | Graphics & Text | Print | Product List | Glossary On
Versions: 1 2 3 4 5 6 7 8 9 10 11 12 13 14 15 16 17 18 19 20 21 22 23 24 25 26 27 28 29 30 31 32 33 34 35 36 37 38 39 40 41 42 43 44 45 46 47 48 49 50
000
ASUS43 KIWX 151300
RWRIWX

KIWX WEATHER ROUNDUP
NATIONAL WEATHER SERVICE NORTHERN INDIANA
800 AM EST FRI DEC 15 2017

NOTE: "FAIR" INDICATES FEW OR NO CLOUDS BELOW 12,000 FEET WITH NO
SIGNIFICANT WEATHER AND/OR OBSTRUCTIONS TO VISIBILITY.

* THESE STATIONS ARE NOT UNDER NWS QUALITY CONTROL. THEY ALSO MAY NOT
  REPORT WEATHER SUCH AS PRECIPITATION OR FOG.

INZ001>027-151400-
NORTHERN INDIANA

CITY           SKY/WX    TMP DP  RH WIND       PRES   REMARKS
GARY*          CLOUDY    27  18  69 SW16      29.94S WCI  14
MICHIGAN CITY* CLOUDY    25  18  74 SW10      29.92S WCI  15
SOUTH BEND     CLOUDY    21  15  78 SW13      29.91F WCI   9
ELKHART*       MOCLDY    21  12  68 SW7       29.91S WCI  13
GOSHEN         CLOUDY    22  14  71 SW12      29.91F WCI  10
MONTICELLO*    CLOUDY    24  16  74 SW12      29.97S WCI  12
FORT WAYNE     CLOUDY    24  18  77 SW12      29.95F WCI  13
PERU/GRISSOM   CLOUDY    24  17  74 SW13      29.95F WCI  12

$$
INZ028>050-151400-
CENTRAL INDIANA

CITY           SKY/WX    TMP DP  RH WIND       PRES   REMARKS
LAFAYETTE      CLOUDY    23  18  81 W9        30.00S WCI  13
KOKOMO*        CLOUDY    24  18  77 SW14      29.97F WCI  12
MUNCIE*        CLOUDY    25  16  68 SW9       29.97F WCI  15
INDIANAPOLIS   CLOUDY    26  17  68 W12       30.02R WCI  16

$$
MIZ043>046-050>051-056>058-064>065-071>073-077>080-151400-
SOUTHWEST LOWER MICHIGAN

CITY           SKY/WX    TMP DP  RH WIND       PRES   REMARKS
BATTLE CREEK   CLOUDY    20  13  74 SW15      29.85F WCI   6
BENTON HARBOR  CLOUDY    27  19  72 W22       29.88S WCI  13
COLDWATER*     CLOUDY    21  13  71 SW7       29.88F WCI  13
HILLSDALE*     CLOUDY    19  14  79 S8        29.86F WCI   9
HOLLAND        MIX PCPN  28  21  75 W16       29.83F WCI  16
GRAND RAPIDS   FLURRIES  22  17  81 S13       29.81F WCI  10
KALAMAZOO      CLOUDY    22  13  68 SW15      29.86F WCI   9
STURGIS*       CLOUDY    22  15  75 SW9       29.88F WCI  11
THREE RIVERS*  CLOUDY    22  14  72 SW10      29.89F WCI  11

$$
OHZ001>008-015>018-024>025-151400-
NORTHWEST OHIO

CITY           SKY/WX    TMP DP  RH WIND       PRES   REMARKS
DEFIANCE       CLOUDY    23  14  68 SW10      29.94F WCI  12
FINDLAY        CLOUDY    22  12  65 S14       29.95F WCI   9
TOLEDO EXPRESS CLOUDY    22  14  71 S8        29.93F WCI  12
TOLEDO METCALF CLOUDY    21  12  68 S13       29.95F WCI   9
LIMA           CLOUDY    21  14  74 S9        29.95F WCI  11

$$
AND FOR LAKE MICHIGAN COASTAL AND OPEN LAKE BUOY OBSERVATIONS

STATION/POSITION TEMP    WIND        PRES    VSBY  WAVE
                 AIR SEA DIR/SP/G                  HT/PER
                 (F)     (DEG/KT/KT) (MB)    (MI)  (FT/S)
CALUMET HARBOR    26     230/  9/ 15 1012.7R
MICHIGAN CITY     25     210/ 19/ 23   N/A
BURNS HARBOR      26     230/ 13/ 19 1013.9S
SAINT JOSEPH      29     250/ 19/ 23 1012.5

$$
&&



USA.gov is the U.S. government's official web portal to all federal, state and local government web resources and services.